Location: Baia Mare
(47.6567°N, 23.5850°E)
Time: 17:45:24
(UTC+03:00)

ISS - Pass Details

Date: 12 July 2018
Orbit: 402 x 408 km, 51.6° (Epoch: 20 July)

Event Time Altitude Azimuth Distance (km) Brightness Sun altitude
Exits shadow 03:48:20 13° 268° (W) 1,280 -1.6 -13.8°
Maximum altitude 03:51:06 53° 344° (NNW) 506 -3.1 -13.6°
Drops below altitude 10° 03:54:21 10° 64° (ENE) 1,474 0.0 -13.3°
Sets 03:56:28 0° 69° (ENE) 2,337 1.0 -13.1°
